Terug naar catalogus

CZ-6A DEB

ActiefPO
NORAD 60678·DEBRIS·🇨🇳 China

Gelanceerd Aug 6, 2024 vanaf Taiyuan Satellite Launch Center

Loading…

Volgende Passages (komende 24 uur)

TLE

VersSource: Space-Track

Epoch: Sep 14, 2026, 10:37 UTC

1 60678U 24140CF  26257.44302429  .00000256  00000-0  69439-4 0  9996
2 60678  88.9040 252.5159 0073171  11.5389 348.7469 14.43034729110496

Volg CZ-6A DEB in realtime met AllMySat

Download on the App Store